BREEZE-M R/B, 38343

Orbit data source: Space-Track

BREEZE-M R/B, 38343 is space debris in HEO originally from a launch on Thu, 17 May 2012 UTC launched from the Tyuratam Missile And Space Complex (TTMTR). Debris objects in space refer to the collection of defunct objects orbiting the Earth. Examples of debris include non-operational satellites, rocket bodies, and fragments generated from explosions, collisions, or faulty payload assembly.

Loading next visibility...
Identifier
38343, 2012-026B
Orbit
HEO
Country
Flag of CISCIS
Related business
Manufacturer
Khrunichev
Mission
Spacecraft
Bus & Motor
BRIZ, Unknown motor
Mass
~1,600 kg wet, 1,600 kg dry
Launch date (UTC)
2012-05-17 (13 years ago)
Launch vehicle
Unknown
Launch site
Tyuratam Missile And Space Complex (TTMTR)
Object type
Payload
Rocket body
Debris
Shape & HBR
Cyl, 2.0 m
Radar Cross Section
14.451 m², Large (>1 m²)

Expand to show TLE details & history
Last TLE update: 1 day ago

TLE from 1 day ago
0 BREEZE-M R/B
1 38343U 12026B   25260.55101894 -.00000140  00000-0  00000-0 0  9996
2 38343   9.9402 158.2537 4112810   4.7910 358.2200  1.76702127 85754
Epoch: 2025-09-17T13:13Z
TLE epoch observation values (Epoch: 2025-09-17T13:13:28.036Z)
Latitude
-0.00001°
Longitude
-36.81968°
Altitude
10,627.183 km
Speed
5.752 km/s
True Right ascension
10h 33m 05s
True Declination
0° 00' 00"
Sunlit
Object was in daylight at epoch
Visualization orbit readout
Latitude
Unknown
Longitude
Unknown
Altitude
Unknown
Speed
Unknown
Apparent Right ascension
Unknown
Apparent Declination
Unknown
Sunlit
N/A
Visualization observer readout
Local Sidereal Time
14:40:07
Azimuth
Unknown
Elevation
Unknown
Doppler factor
Unknown
Orbital elements
Apogee altitude
34,411.512 km
Perigee altitude
10,637.356 km
Semi-major axis
28,902.571 km
Eccentricity
0.41128
Inclination
9.9402°
RAAN
158.2537°
Arg. of periapsis
4.791°
True anomaly
355.32175°
Mean anomaly
358.22°
Eccentric anomaly
356.97747°
Mean motion
0.44171 °/min
Orbital period
815.01 mins
BSTAR
0
Loading maneuver chart data...
Computing Atmospheric mass density...
Loading historical data...
Loading historical data...
Loading historical data...
Loading historical data...
Loading historical data...
Loading historical data...
Loading historical data...

Documentation

Showing up to 5 results
|